This demonstration page uses our WeatherBlox Daily Observations layout. Learn more.

Left ArrowRight Arrow

Hourly Observations for March 9, 2020

Temp ( °F °C ) Dew Point ( °F °C ) Humidity (%) Winds ( mph kmh ) Pressure ( in mb ) Visibility ( mi km ) Precip ( " mm )
12:15 am 00:15 Clear 49 9.5 27 -2.6 43 43 S 7 11 30.29 1026 10 16 N/A
12:35 am 00:35 Partly Cloudy 50 9.8 28 -2 44 44 S 9 15 30.29 1026 10 16 N/A
12:55 am 00:55 Partly Cloudy 51 10.5 29 -1.5 44 44 S 10 17 30.28 1025 10 16 N/A
1:15 am 01:15 Clear 51 10.7 29 -1.4 43 43 S 12 19 30.28 1025 10 16 N/A
1:35 am 01:35 Clear 51 10.7 30 -1.3 44 44 S 13 20 30.28 1025 10 16 N/A
1:55 am 01:55 Partly Cloudy 51 10.8 29 -1.4 43 43 S 12 19 30.28 1025 10 16 N/A
2:15 am 02:15 Clear 51 10.5 29 -1.4 44 44 SSW 9 15 30.29 1026 10 16 N/A
2:35 am 02:35 Partly Cloudy 51 10.5 30 -1.2 44 44 SSW 10 17 30.29 1026 10 16 N/A
2:55 am 02:55 Mostly Cloudy 51 10.7 30 -1.1 44 44 S 13 20 30.29 1026 10 16 N/A
3:15 am 03:15 Mostly Cloudy 52 11 30 -1.1 43 43 SSW 13 20 30.28 1025 10 16 N/A
3:35 am 03:35 Partly Cloudy 51 10.7 30 -1.2 44 44 S 13 20 30.28 1025 10 16 N/A
3:55 am 03:55 Partly Cloudy 50 10.2 30 -1.2 45 45 SSW 10 17 30.28 1025 10 16 N/A
4:15 am 04:15 Mostly Cloudy 51 10.5 30 -1.1 45 45 SSW 10 17 30.28 1025 10 16 N/A
4:35 am 04:35 Partly Cloudy 51 10.3 30 -1 46 46 SSW 9 15 30.28 1025 10 16 N/A
4:55 am 04:55 Partly Cloudy 50 10 30 -0.9 47 47 SSW 9 15 30.28 1025 10 16 N/A
5:15 am 05:15 Partly Cloudy 50 10.1 31 -0.7 47 47 SSW 10 17 30.28 1025 10 16 N/A
5:35 am 05:35 Partly Cloudy 49 9.7 31 -0.6 49 49 S 9 15 30.28 1025 10 16 N/A
5:55 am 05:55 Partly Cloudy 49 9.5 31 -0.6 50 50 S 9 15 30.28 1025 10 16 N/A
6:15 am 06:15 Clear 49 9.5 31 -0.5 50 50 S 8 13 30.28 1025 10 16 N/A
6:35 am 06:35 Partly Cloudy 49 9.7 32 -0.2 50 50 S 9 15 30.29 1026 10 16 N/A
6:55 am 06:55 Partly Cloudy 50 9.9 32 -0.1 50 50 S 9 15 30.29 1026 10 16 N/A
7:15 am 07:15 Partly Cloudy 50 10.2 32 -0.1 49 49 S 9 15 30.29 1026 10 16 N/A
7:35 am 07:35 Clear 50 10 32 undefined 50 50 S 9 15 30.29 1026 10 16 N/A
7:55 am 07:55 Clear 49 9.6 32 undefined 52 52 S 8 13 30.30 1026 10 16 N/A
8:15 am 08:15 Sunny 49 9.7 32 undefined 51 51 S 9 15 30.30 1026 10 16 N/A
8:35 am 08:35 Sunny 48 9.1 32 undefined 53 53 S 9 15 30.30 1026 10 16 N/A
8:55 am 08:55 Sunny 48 8.9 32 undefined 54 54 S 9 15 30.31 1027 10 16 N/A
9:15 am 09:15 Sunny 49 9.5 32 undefined 52 52 S 10 17 30.31 1026 10 16 N/A
9:35 am 09:35 Sunny 50 9.9 33 0.3 52 52 S 10 17 30.31 1026 10 16 N/A
9:55 am 09:55 Mostly Cloudy 50 10.2 33 0.3 51 51 S 9 15 30.31 1026 10 16 N/A
10:15 am 10:15 Partly Cloudy 51 10.7 33 0.6 50 50 S 9 15 30.31 1026 10 16 N/A
10:35 am 10:35 Mostly Cloudy 53 11.5 34 1 49 49 S 10 17 30.31 1026 10 16 N/A
10:55 am 10:55 Partly Cloudy 54 12.4 35 1.6 48 48 S 10 17 30.30 1026 10 16 N/A
11:15 am 11:15 Sunny 56 13.2 36 2.3 48 48 S 10 17 30.30 1026 10 16 N/A
11:35 am 11:35 Sunny 58 14.3 38 3.6 49 49 SSW 10 17 30.29 1026 10 16 N/A
11:55 am 11:55 Sunny 59 14.9 40 4.4 50 50 S 9 15 30.28 1026 10 16 N/A
12:15 pm 12:15 Mostly Cloudy 60 15.5 41 4.8 49 49 S 10 17 30.27 1025 10 16 N/A
12:35 pm 12:35 Cloudy 61 16.1 41 5.1 48 48 SSW 8 13 30.26 1025 10 16 N/A
12:55 pm 12:55 Mostly Cloudy 63 17.1 41 5.1 45 45 S 17 28 30.25 1024 10 16 N/A
1:15 pm 13:15 Partly Cloudy 62 16.8 40 4.6 45 45 SSW 15 24 30.24 1024 10 16 N/A
1:35 pm 13:35 Sunny 63 17 39 3.9 42 42 SSW 20 31 30.23 1024 10 16 N/A
1:55 pm 13:55 Partly Cloudy 63 17.1 39 3.7 41 41 SW 17 28 30.23 1024 10 16 N/A
2:15 pm 14:15 Cloudy 62 16.7 38 3.1 40 40 SSW 20 31 30.22 1023 10 16 N/A
2:35 pm 14:35 Cloudy 62 16.8 38 3.6 42 42 SSW 17 28 30.21 1023 10 16 N/A
2:55 pm 14:55 Cloudy 61 16 41 5 48 48 SW 12 19 30.19 1022 10 16 N/A
3:15 pm 15:15 Mostly Cloudy 62 16.7 42 5.5 48 48 SSW 21 33 30.19 1022 10 16 N/A
3:35 pm 15:35 Mostly Cloudy 60 15.8 43 6 52 52 SSW 14 22 30.18 1022 10 16 N/A
3:55 pm 15:55 Mostly Cloudy 61 16 43 6 52 52 SSW 13 20 30.17 1022 10 16 N/A
4:15 pm 16:15 Partly Cloudy 61 16.2 43 6 51 51 SSW 12 19 30.16 1021 10 16 N/A
4:35 pm 16:35 Mostly Cloudy 60 15.7 43 5.9 52 52 S 21 33 30.16 1021 10 16 N/A
4:55 pm 16:55 Mostly Cloudy 60 15.5 44 6.5 55 55 SSW 15 24 30.16 1021 10 16 N/A
5:15 pm 17:15 Mostly Cloudy 60 15.5 43 6.2 54 54 SSW 18 30 30.16 1021 10 16 N/A
5:35 pm 17:35 Cloudy 59 15.2 43 6.3 56 56 SSW 14 22 30.14 1021 10 16 N/A
5:55 pm 17:55 Cloudy 60 15.3 43 6 54 54 SSW 14 22 30.14 1021 10 16 N/A
6:15 pm 18:15 Cloudy 59 15.2 42 5.3 52 52 S 14 22 30.13 1020 10 16 N/A
6:35 pm 18:35 Cloudy 59 15.1 40 4.7 50 50 S 14 22 30.12 1020 10 16 N/A
6:55 pm 18:55 Cloudy 59 14.8 40 4.5 50 50 S 15 24 30.12 1020 10 16 N/A
7:15 pm 19:15 Cloudy 59 14.8 40 4.6 51 51 S 15 24 30.11 1019 10 16 N/A
7:35 pm 19:35 Cloudy 58 14.5 40 4.6 52 52 SSW 14 22 30.12 1020 10 16 N/A
7:55 pm 19:55 Cloudy 58 14.2 42 5.4 56 56 S 15 24 30.12 1020 10 16 N/A
8:15 pm 20:15 Cloudy 55 13 44 6.8 66 66 S 15 24 30.12 1020 10 16 N/A
8:35 pm 20:35 Cloudy 55 12.5 46 7.5 72 72 S 15 24 30.12 1020 10 16 N/A
8:55 pm 20:55 Cloudy 54 12.1 46 7.7 75 75 S 15 24 30.10 1019 10 16 N/A
9:15 pm 21:15 Cloudy 54 12 46 7.6 75 75 S 15 24 30.09 1019 10 16 N/A
9:35 pm 21:35 Cloudy 54 12.1 46 7.7 75 75 S 14 22 30.09 1019 10 16 N/A
9:55 pm 21:55 Cloudy 54 12.3 46 7.7 74 74 S 13 20 30.08 1019 10 16 N/A
10:15 pm 22:15 Cloudy 55 12.5 46 8 74 74 S 17 28 30.08 1019 10 16 N/A
10:35 pm 22:35 Cloudy 54 12.3 48 8.9 80 80 S 18 30 30.08 1019 10 16 N/A
10:55 pm 22:55 Cloudy 54 12.2 49 9.4 83 83 SSW 15 24 30.07 1018 10 16 N/A
11:15 pm 23:15 Cloudy 54 12.4 49 9.6 83 83 SSW 16 26 30.06 1018 10 16 N/A
11:35 pm 23:35 Cloudy 54 12.1 50 10 87 87 S 16 26 30.05 1018 10 16 N/A
11:55 pm 23:55 Cloudy 54 12 51 10.3 89 89 S 14 22 30.04 1017 7 11 N/A

Powered by AerisWeather